Regional Weather Roundup
Issued by NWS Portland, ME

Home | Current Version | Previous Version | Text Only | Print | Product List | Glossary On
Versions: 1 2 3 4 5 6 7 8 9 10 11 12 13 14 15 16 17 18 19 20 21 22 23 24 25 26 27 28 29 30 31 32 33 34 35 36 37 38 39 40 41 42 43 44 45 46 47 48 49 50
000
ASUS41 KGYX 252310
RWRGYX
WEATHER ROUNDUP FOR MAINE AND NEW HAMPSHIRE
NATIONAL WEATHER SERVICE GRAY ME
700 PM EDT TUE APR 25 2017

MEZ002-005-006-010-012-015-018-020-021-024-026-027-029-260000-
MAINE

CITY           SKY/WX    TMP DP  RH WIND       PRES   REMARKS
PORTLAND       LGT RAIN  43  40  89 NE10      30.28F FOG
SANFORD        LGT RAIN  42  41  96 NE9       30.26F
BAR HARBOR     CLOUDY    46  34  62 VRB6      30.34F
WISCASSET      CLOUDY    46  39  76 VRB5      30.31F
ROCKLAND       LGT RAIN  44  38  79 E12G18    30.32F
FRYEBURG       LGT RAIN  44  43  96 NE6       30.28F FOG
LEWISTONAUBURN LGT RAIN  44  42  93 CALM      30.30F FOG
AUGUSTA        CLOUDY    47  34  60 VRB6      30.31F
WATERVILLE     CLOUDY    48  34  58 CALM      30.29F
BANGOR         LGT RAIN  50  30  46 SE13      30.33F
GREENVILLE       N/A     42  42 100 S3        30.28F
MILLINOCKET    LGT RAIN  49  40  71 CALM      30.33F
HOULTON        CLOUDY    54  30  40 VRB7      30.32F
PRESQUE ISLE   CLOUDY    52  29  41 SE7       30.31F
FRENCHVILLE    PTCLDY    48  24  39 SE8       30.28F
CARIBOU        PTCLDY    52  28  39 SE6       30.30F
$$

NHZ002-005-008-009-011-012-014-260000-
NEW HAMPSHIRE

CITY           SKY/WX    TMP DP  RH WIND       PRES   REMARKS
PORTSMOUTH     LGT RAIN  43  42  94 NE12      30.22F FOG
ROCHESTER      LGT RAIN  42  40  92 VRB7      30.24F FOG
NASHUA         LGT RAIN  45  44  97 NE6       30.19F FOG
MANCHESTER     LGT RAIN  45  41  86 NE9       30.19F FOG
CONCORD        LGT RAIN  45  42  89 NE6       30.22S FOG
LACONIA        LGT RAIN  44  42  93 NE10      30.23F FOG
PLYMOUTH       DRIZZLE   45  44  95 CALM      30.23F
BERLIN         LGT RAIN  46  40  79 S6        30.23F
WHITEFIELD     CLOUDY    49  40  71 CALM      30.19F
JAFFREY        LGT RAIN  45  44  97 N8        30.15F FOG
KEENE          LGT RAIN  47  44  90 VRB7      30.14F
LEBANON        CLOUDY    49  44  83 E6        30.17F
MT WASHINGTON  SHOWER    34  34 100 SE56G62     N/A  VSB 1/16WCI  16
$$

VTZ005-007-008-260000-
VERMONT

CITY           SKY/WX    TMP DP  RH WIND       PRES   REMARKS
ST JOHNSBURY     N/A     49  45  86 MISG      30.16F
MONTPELIER     LGT RAIN  46  44  93 S5        30.20F
BURLINGTON     CLOUDY    52  47  83 SW3       30.12F
$$

MAZ007-012-024-CTZ003-RIZ002-NYZ038-NYZ072-260000-
SOUTHERN NEW ENGLAND AND NY

CITY           SKY/WX    TMP DP  RH WIND       PRES   REMARKS
BOSTON         LGT RAIN  47  46  97 NE20      30.16F FOG
WORCESTER      LGT RAIN  43  41  93 NE14G23   30.11F VSB 1/4
NANTUCKET      LGT RAIN  52  50  93 E20G30    30.07F FOG
PROVIDENCE     RAIN      50  50 100 N10       30.09F FOG
HARTFORD       LGT RAIN  49  47  93 N14       30.08F
ALBANY         LGT RAIN  54  47  77 NE8       30.06F
NEW YORK CITY  LGT RAIN  53  50  89 NE29G35   29.91F FOG
$$

ANZ081-ANZ082-ANZ150-NHZ014-MEZ023>029-260000-
COASTAL MARINE OBSERVATIONS

STATION/POSITION TIME  TEMP    WIND        PRES    WAVE
                       AIR SEA DIR/SP/G            HT/PER
                 (UTC) (F)     (DEG/KT/KT) (MB)    (FT/S)
MOUNT DESERT ROC 2300   42                 1026.6F
MATINICUS ROCK   2300   42      90/ 22/ 24 1025.1F
ISLE OF SHOALS   2300   43      30/ 22/ 24 1022.6F
JEFFREYS LEDGE   2206      44                N/A     5/ 5
CASHES LEDGE BUO 2250   43 43              1023.8F   6/ 6
GEORGES BANK BUO 2150   46 42              1022.7    5/ 5
$$

.............KEY..............
   WCI - WIND CHILL
   TC  - TEMPERATURE IN CELSIUS
   VSB - VISIBILITY IN MILES
   HX  - HEAT INDEX
   FAIR- INDICATES FEW OR NO CLOUDS BELOW 12,000 FT, WITH NO
         SIGNIFICANT WEATHER AND/OR OBSTRUCTIONS TO VISIBILITY.





USA.gov is the U.S. government's official web portal to all federal, state and local government web resources and services.